Time,TemperatureF,DewpointF,PressureIn,WindDirection,WindDirectionDegrees,WindSpeedMPH,WindSpeedGustMPH,Humidity,HourlyPrecipIn,Conditions,Clouds,dailyrainin,SoftwareType,DateUTC
2013-06-16 00:07:00,60.1,49.0,29.91,WSW,248,4.0,8.0,66,0.00,,,0.00,weatherlink.com 1.10,2013-06-16 04:07:00,
2013-06-16 00:22:00,59.9,48.0,29.91,SSE,163,2.0,7.0,66,0.00,,,0.00,weatherlink.com 1.10,2013-06-16 04:22:00,
2013-06-16 00:37:00,60.2,48.0,29.91,NW,316,3.0,5.0,64,0.00,,,0.00,weatherlink.com 1.10,2013-06-16 04:37:00,
2013-06-16 00:52:00,59.6,48.0,29.90,SW,218,0.0,4.0,66,0.00,,,0.00,weatherlink.com 1.10,2013-06-16 04:52:00,
2013-06-16 01:07:00,59.3,48.0,29.90,West,276,0.0,6.0,66,0.00,,,0.00,weatherlink.com 1.10,2013-06-16 05:07:00,
2013-06-16 01:22:00,58.0,48.0,29.90,WNW,296,2.0,3.0,70,0.00,,,0.00,weatherlink.com 1.10,2013-06-16 05:22:00,
2013-06-16 01:37:00,58.2,48.0,29.90,SW,231,0.0,4.0,70,0.00,,,0.00,weatherlink.com 1.10,2013-06-16 05:37:00,
2013-06-16 01:52:00,56.3,50.0,29.90,East,79,0.0,1.0,78,0.00,,,0.00,weatherlink.com 1.10,2013-06-16 05:52:00,
2013-06-16 02:07:00,56.2,47.0,29.91,West,263,0.0,4.0,72,0.00,,,0.00,weatherlink.com 1.10,2013-06-16 06:07:00,
2013-06-16 02:22:00,55.9,49.0,29.91,NNE,30,0.0,1.0,77,0.00,,,0.00,weatherlink.com 1.10,2013-06-16 06:22:00,
2013-06-16 02:37:00,56.7,49.0,29.91,South,186,0.0,2.0,76,0.00,,,0.00,weatherlink.com 1.10,2013-06-16 06:37:00,
2013-06-16 02:52:00,55.5,49.0,29.91,ESE,115,1.0,2.0,78,0.00,,,0.00,weatherlink.com 1.10,2013-06-16 06:52:00,
2013-06-16 03:08:00,53.6,48.0,29.91,East,91,0.0,1.0,80,0.00,,,0.00,weatherlink.com 1.10,2013-06-16 07:08:00,
2013-06-16 03:23:00,52.4,48.0,29.90,East,98,1.0,2.0,85,0.00,,,0.00,weatherlink.com 1.10,2013-06-16 07:23:00,
2013-06-16 03:38:00,52.1,47.0,29.90,East,92,0.0,1.0,84,0.00,,,0.00,weatherlink.com 1.10,2013-06-16 07:38:00,
2013-06-16 03:53:00,52.3,48.0,29.90,East,92,0.0,1.0,86,0.00,,,0.00,weatherlink.com 1.10,2013-06-16 07:53:00,
2013-06-16 04:08:00,52.7,48.0,29.90,East,92,0.0,0.0,84,0.00,,,0.00,weatherlink.com 1.10,2013-06-16 08:08:00,
2013-06-16 04:23:00,52.0,47.0,29.90,East,92,0.0,0.0,84,0.00,,,0.00,weatherlink.com 1.10,2013-06-16 08:23:00,
2013-06-16 04:38:00,51.0,46.0,29.89,East,94,0.0,0.0,84,0.00,,,0.00,weatherlink.com 1.10,2013-06-16 08:38:00,
2013-06-16 04:53:00,49.6,46.0,29.90,East,93,0.0,0.0,87,0.00,,,0.00,weatherlink.com 1.10,2013-06-16 08:53:00,
2013-06-16 05:08:00,48.3,46.0,29.90,East,94,0.0,0.0,90,0.00,,,0.00,weatherlink.com 1.10,2013-06-16 09:08:00,
2013-06-16 05:23:00,48.5,46.0,29.91,East,93,0.0,0.0,92,0.00,,,0.00,weatherlink.com 1.10,2013-06-16 09:23:00,
2013-06-16 05:38:00,50.3,48.0,29.91,East,93,0.0,0.0,92,0.00,,,0.00,weatherlink.com 1.10,2013-06-16 09:38:00,
2013-06-16 05:53:00,51.1,49.0,29.91,East,94,0.0,0.0,91,0.00,,,0.00,weatherlink.com 1.10,2013-06-16 09:53:00,
2013-06-16 06:08:00,51.8,49.0,29.91,East,93,0.0,0.0,91,0.00,,,0.00,weatherlink.com 1.10,2013-06-16 10:08:00,
2013-06-16 06:23:00,53.0,51.0,29.91,East,93,0.0,0.0,92,0.00,,,0.00,weatherlink.com 1.10,2013-06-16 10:23:00,
2013-06-16 06:38:00,54.0,51.0,29.91,East,91,0.0,0.0,90,0.00,,,0.00,weatherlink.com 1.10,2013-06-16 10:38:00,
2013-06-16 06:53:00,55.8,53.0,29.91,East,91,0.0,0.0,90,0.00,,,0.00,weatherlink.com 1.10,2013-06-16 10:53:00,
2013-06-16 07:08:00,58.0,52.0,29.91,West,275,0.0,1.0,81,0.00,,,0.00,weatherlink.com 1.10,2013-06-16 11:08:00,
2013-06-16 07:23:00,58.9,54.0,29.91,West,275,0.0,0.0,85,0.00,,,0.00,weatherlink.com 1.10,2013-06-16 11:23:00,
2013-06-16 07:38:00,59.7,52.0,29.91,SW,235,0.0,2.0,77,0.00,,,0.00,weatherlink.com 1.10,2013-06-16 11:38:00,
2013-06-16 07:53:00,60.9,48.0,29.91,West,281,5.0,5.0,62,0.00,,,0.00,weatherlink.com 1.10,2013-06-16 11:53:00,
2013-06-16 08:08:00,64.3,50.0,29.91,WSW,250,1.0,4.0,60,0.00,,,0.00,weatherlink.com 1.10,2013-06-16 12:08:00,
2013-06-16 08:23:00,67.5,49.0,29.91,WSW,240,3.0,5.0,52,0.00,,,0.00,weatherlink.com 1.10,2013-06-16 12:23:00,
2013-06-16 08:38:00,66.6,47.0,29.90,SSE,160,1.0,9.0,50,0.00,,,0.00,weatherlink.com 1.10,2013-06-16 12:38:00,
2013-06-16 08:53:00,66.9,48.0,29.90,West,267,0.0,0.0,50,0.00,,,0.00,weatherlink.com 1.10,2013-06-16 12:53:00,
2013-06-16 09:08:00,69.7,50.0,29.89,NW,306,0.0,0.0,49,0.00,,,0.00,weatherlink.com 1.10,2013-06-16 13:08:00,
2013-06-16 09:23:00,68.0,48.0,29.89,WSW,238,0.0,0.0,49,0.00,,,0.00,weatherlink.com 1.10,2013-06-16 13:23:00,
2013-06-16 09:38:00,68.5,51.0,29.88,SW,236,0.0,0.0,53,0.00,,,0.00,weatherlink.com 1.10,2013-06-16 13:38:00,
2013-06-16 09:53:00,69.8,52.0,29.87,South,169,0.0,0.0,53,0.00,,,0.00,weatherlink.com 1.10,2013-06-16 13:53:00,
2013-06-16 10:08:00,68.6,51.0,29.87,SSE,150,2.0,5.0,54,0.00,,,0.00,weatherlink.com 1.10,2013-06-16 14:08:00,
2013-06-16 10:24:00,68.7,51.0,29.87,West,267,2.0,7.0,54,0.00,,,0.00,weatherlink.com 1.10,2013-06-16 14:24:00,
2013-06-16 10:39:00,68.8,53.0,29.86,West,274,1.0,5.0,58,0.00,,,0.00,weatherlink.com 1.10,2013-06-16 14:39:00,
2013-06-16 10:54:00,69.8,52.0,29.86,WNW,287,4.0,8.0,54,0.00,,,0.00,weatherlink.com 1.10,2013-06-16 14:54:00,
2013-06-16 11:09:00,70.1,53.0,29.85,ESE,105,4.0,8.0,55,0.00,,,0.00,weatherlink.com 1.10,2013-06-16 15:09:00,
2013-06-16 11:24:00,70.2,54.0,29.84,WNW,283,3.0,6.0,57,0.00,,,0.00,weatherlink.com 1.10,2013-06-16 15:24:00,
2013-06-16 11:39:00,71.3,55.0,29.84,SSW,205,2.0,8.0,56,0.00,,,0.00,weatherlink.com 1.10,2013-06-16 15:39:00,
2013-06-16 11:54:00,72.4,54.0,29.84,West,276,1.0,8.0,53,0.00,,,0.00,weatherlink.com 1.10,2013-06-16 15:54:00,
2013-06-16 12:09:00,72.4,54.0,29.83,SSE,152,2.0,6.0,53,0.00,,,0.00,weatherlink.com 1.10,2013-06-16 16:09:00,
2013-06-16 12:24:00,73.5,55.0,29.82,SW,225,2.0,6.0,52,0.00,,,0.00,weatherlink.com 1.10,2013-06-16 16:24:00,
2013-06-16 12:39:00,72.9,54.0,29.81,East,79,0.0,7.0,51,0.00,,,0.00,weatherlink.com 1.10,2013-06-16 16:39:00,
2013-06-16 12:54:00,73.5,56.0,29.81,ENE,75,1.0,4.0,54,0.00,,,0.00,weatherlink.com 1.10,2013-06-16 16:54:00,
2013-06-16 13:09:00,72.0,55.0,29.81,East,90,1.0,5.0,55,0.00,,,0.00,weatherlink.com 1.10,2013-06-16 17:09:00,
2013-06-16 13:24:00,72.1,56.0,29.80,WNW,302,3.0,9.0,58,0.00,,,0.00,weatherlink.com 1.10,2013-06-16 17:24:00,
2013-06-16 13:39:00,71.8,54.0,29.80,NNW,338,5.0,10.0,53,0.00,,,0.00,weatherlink.com 1.10,2013-06-16 17:39:00,
2013-06-16 13:54:00,71.4,55.0,29.79,NE,43,0.0,11.0,56,0.00,,,0.00,weatherlink.com 1.10,2013-06-16 17:54:00,
2013-06-16 14:09:00,71.0,55.0,29.78,WSW,239,3.0,10.0,57,0.00,,,0.00,weatherlink.com 1.10,2013-06-16 18:09:00,
2013-06-16 14:24:00,70.7,55.0,29.76,East,93,0.0,7.0,57,0.00,,,0.00,weatherlink.com 1.10,2013-06-16 18:24:00,
2013-06-16 14:39:00,71.9,55.0,29.75,WSW,239,2.0,7.0,56,0.00,,,0.00,weatherlink.com 1.10,2013-06-16 18:39:00,
2013-06-16 14:54:00,72.7,56.0,29.75,East,85,3.0,10.0,57,0.00,,,0.00,weatherlink.com 1.10,2013-06-16 18:54:00,
2013-06-16 15:09:00,73.0,55.0,29.74,East,91,2.0,7.0,54,0.00,,,0.00,weatherlink.com 1.10,2013-06-16 19:09:00,
2013-06-16 15:24:00,71.6,54.0,29.74,SW,228,4.0,11.0,55,0.00,,,0.00,weatherlink.com 1.10,2013-06-16 19:24:00,
2013-06-16 15:39:00,70.4,55.0,29.73,South,188,4.0,7.0,58,0.00,,,0.00,weatherlink.com 1.10,2013-06-16 19:39:00,
2013-06-16 15:55:00,69.5,55.0,29.73,SW,225,1.0,7.0,60,0.00,,,0.00,weatherlink.com 1.10,2013-06-16 19:55:00,
2013-06-16 16:09:00,69.4,56.0,29.73,SSE,162,1.0,5.0,62,0.00,,,0.00,weatherlink.com 1.10,2013-06-16 20:09:00,
2013-06-16 16:24:00,68.9,56.0,29.72,South,188,0.0,4.0,63,0.00,,,0.00,weatherlink.com 1.10,2013-06-16 20:24:00,
2013-06-16 16:39:00,69.2,57.0,29.71,East,90,1.0,3.0,65,0.00,,,0.00,weatherlink.com 1.10,2013-06-16 20:39:00,
2013-06-16 16:54:00,68.8,56.0,29.73,ENE,67,0.0,5.0,64,0.00,,,0.00,weatherlink.com 1.10,2013-06-16 20:54:00,
2013-06-16 17:09:00,67.9,56.0,29.71,ESE,120,3.0,9.0,65,0.00,,,0.00,weatherlink.com 1.10,2013-06-16 21:09:00,
2013-06-16 17:24:00,68.0,56.0,29.70,ESE,119,1.0,6.0,65,0.00,,,0.00,weatherlink.com 1.10,2013-06-16 21:24:00,
2013-06-16 17:39:00,68.2,57.0,29.70,WNW,293,0.0,3.0,67,0.00,,,0.00,weatherlink.com 1.10,2013-06-16 21:39:00,
2013-06-16 17:54:00,68.3,56.0,29.69,NE,43,0.0,5.0,66,0.00,,,0.00,weatherlink.com 1.10,2013-06-16 21:54:00,
2013-06-16 18:09:00,68.6,57.0,29.69,ENE,78,0.0,2.0,67,0.00,,,0.00,weatherlink.com 1.10,2013-06-16 22:09:00,
2013-06-16 18:24:00,68.4,57.0,29.69,SSW,205,2.0,7.0,67,0.00,,,0.00,weatherlink.com 1.10,2013-06-16 22:24:00,
2013-06-16 18:39:00,68.8,56.0,29.69,SSW,197,0.0,3.0,65,0.00,,,0.00,weatherlink.com 1.10,2013-06-16 22:39:00,
2013-06-16 18:55:00,68.9,57.0,29.68,South,184,0.0,5.0,65,0.00,,,0.00,weatherlink.com 1.10,2013-06-16 22:55:00,
2013-06-16 19:10:00,68.8,56.0,29.68,SSW,204,1.0,4.0,65,0.00,,,0.00,weatherlink.com 1.10,2013-06-16 23:10:00,
2013-06-16 19:25:00,69.0,57.0,29.68,WSW,250,1.0,3.0,66,0.00,,,0.00,weatherlink.com 1.10,2013-06-16 23:25:00,
2013-06-16 19:40:00,69.0,57.0,29.69,South,191,1.0,7.0,66,0.00,,,0.00,weatherlink.com 1.10,2013-06-16 23:40:00,
2013-06-16 19:56:00,68.9,57.0,29.69,WNW,291,1.0,6.0,66,0.00,,,0.00,weatherlink.com 1.10,2013-06-16 23:56:00,
2013-06-16 20:10:00,68.7,57.0,29.69,WNW,300,2.0,6.0,67,0.00,,,0.00,weatherlink.com 1.10,2013-06-17 00:10:00,
2013-06-16 20:25:00,68.6,58.0,29.70,NW,321,2.0,7.0,68,0.00,,,0.00,weatherlink.com 1.10,2013-06-17 00:25:00,
2013-06-16 20:40:00,68.3,58.0,29.70,NW,315,1.0,5.0,70,0.00,,,0.00,weatherlink.com 1.10,2013-06-17 00:40:00,
2013-06-16 20:55:00,67.8,58.0,29.70,SSW,204,3.0,7.0,71,0.00,,,0.00,weatherlink.com 1.10,2013-06-17 00:55:00,
2013-06-16 21:10:00,67.9,58.0,29.71,NNE,30,1.0,9.0,71,0.00,,,0.00,weatherlink.com 1.10,2013-06-17 01:10:00,
2013-06-16 21:25:00,67.8,58.0,29.72,SW,228,2.0,10.0,72,0.00,,,0.00,weatherlink.com 1.10,2013-06-17 01:25:00,
2013-06-16 21:40:00,67.3,59.0,29.72,WNW,291,3.0,11.0,74,0.00,,,0.00,weatherlink.com 1.10,2013-06-17 01:40:00,
2013-06-16 21:55:00,66.8,59.0,29.73,WSW,256,1.0,8.0,76,0.00,,,0.00,weatherlink.com 1.10,2013-06-17 01:55:00,
2013-06-16 22:10:00,66.4,59.0,29.73,NW,325,1.0,10.0,78,0.00,,,0.00,weatherlink.com 1.10,2013-06-17 02:10:00,
2013-06-16 22:25:00,65.9,59.0,29.74,North,358,2.0,11.0,79,0.00,,,0.00,weatherlink.com 1.10,2013-06-17 02:25:00,
2013-06-16 22:40:00,65.4,59.0,29.74,SW,217,0.0,5.0,80,0.00,,,0.00,weatherlink.com 1.10,2013-06-17 02:40:00,
2013-06-16 23:10:00,64.3,59.0,29.75,WNW,291,5.0,9.0,83,0.00,,,0.00,weatherlink.com 1.10,2013-06-17 03:10:00,
2013-06-16 23:25:00,63.8,59.0,29.75,NW,315,2.0,5.0,84,0.00,,,0.00,weatherlink.com 1.10,2013-06-17 03:25:00,
2013-06-16 23:40:00,63.6,59.0,29.75,West,281,1.0,6.0,84,0.00,,,0.00,weatherlink.com 1.10,2013-06-17 03:40:00,
2013-06-16 23:55:00,63.2,59.0,29.76,WSW,256,3.0,4.0,85,0.00,,,0.00,weatherlink.com 1.10,2013-06-17 03:55:00,